Regional Weather Roundup
Issued by NWS

Home | Current Version | Previous Version | Text Only | Print | Product List | Glossary On
Versions: 1 2 3 4 5 6 7 8 9 10 11 12 13 14 15 16 17 18 19 20 21 22 23 24 25 26 27 28 29 30 31 32 33 34 35 36 37 38 39 40 41 42 43 44 45 46 47 48 49 50
000
ASUS43 KDTX 141801
RWRMI
MICHIGAN HOURLY REGIONAL WEATHER ROUNDUP
NATIONAL WEATHER SERVICE DETROIT/PONTIAC MI
100 PM EST THU DEC 14 2017

NOTE: "FAIR" INDICATES FEW OR NO CLOUDS BELOW 12,000 FEET WITH NO
SIGNIFICANT WEATHER AND/OR OBSTRUCTION TO VISIBILITY.

MIZ047>049-052>055-059>063-066>070-074>076-081>083-141900-
SOUTHEAST LOWER MICHIGAN

CITY           SKY/WX    TMP DP  RH WIND       PRES   REMARKS
ADRIAN         SUNNY     19   6  57 NW6       30.05R WCI  11
6HR MIN TEMP:  10; 6HR MAX TEMP:  19;

ALMA           SUNNY     15   7  71 S6        30.02F WCI   7
6HR MIN TEMP: -15; 6HR MAX TEMP:  16;

ANN ARBOR      SUNNY     20   7  57 NW7       30.01F WCI  11
BAD AXE        MOSUNNY   16   8  69 W12       29.99S WCI   3
6HR MIN TEMP:  11; 6HR MAX TEMP:  16;

CARO           SUNNY     13   6  72 W9        30.02S WCI   1
DETROIT CITY   SUNNY     21   2  43 NW7       30.02F WCI  12
6HR MIN TEMP:  14; 6HR MAX TEMP:  21;

DETROIT        MOSUNNY   22   4  46 W7        30.03F WCI  13
6HR MIN TEMP:  14; 6HR MAX TEMP:  22; 6HR PCP: TRACE;

FLINT          SUNNY     12   4  70 W7        30.02F WCI   1
6HR MIN TEMP:   1; 6HR MAX TEMP:  13;

GROSSE ILE     SUNNY     20   4  48 CALM      30.01F
6HR MIN TEMP:  13; 6HR MAX TEMP:  21;

HILLSDALE      SUNNY     21   5  49 CALM      30.00S
HOWELL         SUNNY     16   7  67 W7        30.01S WCI   6
6HR MIN TEMP:   4; 6HR MAX TEMP:  16;


CITY           SKY/WX    TMP DP  RH WIND       PRES   REMARKS
JACKSON        SUNNY     19   5  54 W3        30.02S
6HR MIN TEMP:   4; 6HR MAX TEMP:  19;

LAMBERTVILLE   SUNNY     18   5  57 NW5       30.04S WCI  11
6HR MIN TEMP:   9; 6HR MAX TEMP:  18;

LANSING        SUNNY     18   8  65 S3        30.03S
6HR MIN TEMP:   0; 6HR MAX TEMP:  18;

LAPEER         FAIR      16   5  61 W5        30.00S WCI   9
6HR MIN TEMP:   5; 6HR MAX TEMP:  16;

MASON          SUNNY     19   4  53 CALM      30.03S
6HR MIN TEMP:   1; 6HR MAX TEMP:  19;

MONROE         SUNNY     18   3  52 W7        30.03S WCI   9
6HR MIN TEMP:   9; 6HR MAX TEMP:  18;

MT. CLEMENS    MOSUNNY   19   4  51 W6        29.99F WCI  11
6HR MIN TEMP:  13; 6HR MAX TEMP:  19;

PONTIAC        PTSUNNY   18   6  59 NW7       29.98F WCI   9
6HR MIN TEMP:   7; 6HR MAX TEMP:  18;

PORT HOPE        N/A     19   7  59 W10       29.97R WCI   7
6HR MIN TEMP:  16; 6HR MAX TEMP:  20;

PORT HURON     SUNNY     18   3  53 NW9       30.00S WCI   6
TRI CITIES     SUNNY     12   6  77 SW8       30.03F WCI   0
6HR MIN TEMP:   0; 6HR MAX TEMP:  12;

MIDLAND        FAIR      18   8  64 SW5       30.01F WCI  11
6HR MIN TEMP:  -7; 6HR MAX TEMP:  18;

TROY           SUNNY     21   2  43 W3        30.02F
SAGINAW HB     SUNNY     18   9  68 W5        30.03S WCI  11
$$
MIZ043>046-050>051-056>058-064>065-071>073-077>080-141900-
SOUTHWEST LOWER MICHIGAN

CITY           SKY/WX    TMP DP  RH WIND       PRES   REMARKS
BATTLE CREEK   CLOUDY    20  10  65 CALM      30.02F
6HR MIN TEMP:   0; 6HR MAX TEMP:  21;

BENTON HARBOR  CLOUDY    22  11  62 S7        30.05F WCI  13
6HR MIN TEMP:  13; 6HR MAX TEMP:  25; 6HR PCP: TRACE;

BIG RAPIDS     FLURRIES  21  14  75 W3        29.98S
6HR MIN TEMP:  -8; 6HR MAX TEMP:  21;

COLDWATER      MOSUNNY   20   6  53 CALM      30.02F
6HR MIN TEMP:   1; 6HR MAX TEMP:  21;

HOLLAND        CLOUDY    19  14  81 S6        30.04F WCI  11
6HR MIN TEMP:   2; 6HR MAX TEMP:  19; 6HR PCP: TRACE;

GRAND RAPIDS   FLURRIES  19  11  70 S7        30.02F WCI  10
6HR MIN TEMP:   0; 6HR MAX TEMP:  20; 6HR PCP: TRACE;

IONIA          FAIR      17   8  68 S5        30.00F WCI   9
6HR MIN TEMP:  -1; 6HR MAX TEMP:  17;

KALAMAZOO      FLURRIES  20  10  65 SW3       30.04S
6HR MIN TEMP:   4; 6HR MAX TEMP:  20;

LUDINGTON      CLOUDY    24  13  64 W6        30.00F WCI  16
6HR MIN TEMP:  13; 6HR MAX TEMP:  24;

MARSHALL       PTSUNNY   19   6  56 CALM      30.02S
6HR MIN TEMP:   1; 6HR MAX TEMP:  19;

MOUNT PLEASANT SUNNY     19   9  66 CALM      29.99F
6HR MIN TEMP:  -5; 6HR MAX TEMP:  19;

MUSKEGON       LGT SNOW  21  15  78 S5        30.03S VSB 1   WCI  15
6HR MIN TEMP:   5; 6HR MAX TEMP:  21; 6HR PCP: TRACE;

SOUTH HAVEN    LGT SNOW  22  13  67 S5        30.05S WCI  16
$$
MIZ016>042-141900-
NORTHERN LOWER MICHIGAN

CITY           SKY/WX    TMP DP  RH WIND       PRES   REMARKS
ALPENA         MIX PCPN  18  10  71 NW9       29.96S WCI   7
6HR MIN TEMP:   5; 6HR MAX TEMP:  19; 6HR PCP: TRACE;

BEAVER ISLAND  CLOUDY    22  13  67 W9        29.95S WCI  12
6HR MIN TEMP:  17; 6HR MAX TEMP:  22;

BELLAIRE       LGT SNOW  19  17  91 S3        29.97F
6HR MIN TEMP:   1; 6HR MAX TEMP:  19;

CADILLAC       FLURRIES  19  13  78 SW10      29.93S WCI   7
CHARLEVOIX     LGT SNOW  22  17  83 CALM      29.98F
6HR MIN TEMP:  18; 6HR MAX TEMP:  23;

FRANKFORT      LGT SNOW  24  15  70 W8        29.99S WCI  15
GRAYLING       FLURRIES  19  10  67 W7        29.94S WCI  10
6HR MIN TEMP: -14; 6HR MAX TEMP:  19;

HARBOR SPRINGS CLOUDY    20  10  65 NW7       29.95S WCI  11
HOUGHTON LAKE  PTSUNNY   14   9  80 SW6       29.95F WCI   5
6HR MIN TEMP:  -4; 6HR MAX TEMP:  16;

MANISTEE       FLURRIES  24  15  68 W12       29.99F WCI  13
OSCODA         MOSUNNY   18   6  61 NW9       29.98S WCI   6
6HR MIN TEMP:  -8; 6HR MAX TEMP:  18;

PELLSTON       CLOUDY    20  10  65 W9        29.95F WCI   9
6HR MIN TEMP:   9; 6HR MAX TEMP:  20; 6HR PCP: TRACE;

ROGERS CITY    FLURRIES  19  11  71 W5        29.96S WCI  12
TRAVERSE CITY  FLURRIES  23  14  68 W9        29.97F WCI  13
6HR MIN TEMP:  14; 6HR MAX TEMP:  23; 6HR PCP:  0.01;

$$
MIZ007>008-015-141900-
EASTERN UPPER MICHIGAN

CITY           SKY/WX    TMP DP  RH WIND       PRES   REMARKS
KINROSS        FLURRIES  11   5  77 SE6       29.93F WCI   1
6HR MIN TEMP:  -3; 6HR MAX TEMP:  11;

MACKINAC ISLAN CLOUDY    20   9  62 W3        29.93F
6HR MIN TEMP:  11; 6HR MAX TEMP:  20;

NEWBERRY       CLOUDY    19  14  82 W5        29.90F WCI  12
6HR MIN TEMP:  10; 6HR MAX TEMP:  19;

S. S. MARIE    CLOUDY     4  -2  76 S6        29.94R WCI  -7
6HR MIN TEMP:  -1; 6HR MAX TEMP:   5; 6HR PCP: TRACE;

MUNISING         N/A     20  13  74 W8        29.94S WCI  10
6HR MIN TEMP:  17; 6HR MAX TEMP:  22; 6HR PCP:  0.02;

$$
MIZ004>006-011>014-085-141900-
CENTRAL UPPER MICHIGAN

CITY           SKY/WX    TMP DP  RH WIND       PRES   REMARKS
MANISTIQUE     FLURRIES  19   7  59 W7        29.95S WCI  10
6HR MIN TEMP:   8; 6HR MAX TEMP:  19;

ESCANABA       MOSUNNY   20   9  62 W10       29.98F WCI   9
6HR MIN TEMP:  10; 6HR MAX TEMP:  20;

MENOMINEE      FLURRIES  24  13  62 VRB3      30.01F
6HR MIN TEMP:  -3; 6HR MAX TEMP:  24; 6HR PCP: TRACE;

SAWYER-GWINN   PTSUNNY   16   9  73 NW7       29.92F WCI   6
$$
MIZ001>003-009>011-084-141900-
WESTERN UPPER MICHIGAN

CITY           SKY/WX    TMP DP  RH WIND       PRES   REMARKS
IRON MOUNTAIN  PTSUNNY   20  10  65 W7        29.92F WCI  11
6HR MIN TEMP:   1; 6HR MAX TEMP:  20; 6HR PCP: TRACE;

HOUGHTON       MOSUNNY   17   6  62 NW13      29.91S WCI   4
6HR MIN TEMP:   9; 6HR MAX TEMP:  17;

COPPER HARBOR    N/A     21  13  71 N15       29.93F WCI   8
6HR MIN TEMP:  17; 6HR MAX TEMP:  21;

IRONWOOD       FLURRIES  17  12  80 SW8       29.95F WCI   7
6HR MIN TEMP:  11; 6HR MAX TEMP:  17;

$$

ABBREVIATIONS USED IN REMARKS
   TC - TEMPERATURE IN CELSIUS
  WCI - WIND CHILL INDEX
   HX - HEAT INDEX
  VSB - VISIBILITY





USA.gov is the U.S. government's official web portal to all federal, state and local government web resources and services.